EHI
0 0 0 0 1 1 0 0 0 0 0 0 0 0 0 0 0 0 0 0 0 0 0 0 0 0 0 0 0 0 0 0 0 0 0 0 0 0
0 0 0 0 1 2 1 1 0 0 0 0 0 0 0 0 0 0 0 0 0 0 0 0 0 0 0 0 0 0 0 0 0 0 0 0 0 0
0 0 0 0 1 2 2 2 1 0 0 0 0 0 0 0 0 0 0 0 0 0 0 0 0 0 0 0 0 0 0 0 0 0 0 0 0 0
0 0 0 0 0 1 1 2 2 1 0 0 0 0 0 0 0 0 0 1 1 0 0 0 0 0 0 0 0 0 0 0 0 0 0 0 0 0
0 0 0 0 0 0 0 1 1 1 0 0 0 0 0 0 0 0 0 0 1 1 0 0 0 0 0 0 0 0 0 0 0 0 0 0 0 0
0 0 0 0 0 0 0 1 1 1 0 0 0 0 0 0 0 0 0 0 0 0 0 0 0 0 0 0 0 0 0 0 0 0 0 0 0 0
0 0 0 0 0 0 0 1 1 0 0 0 0 0 0 0 0 0 0 0 0 0 0 0 0 0 0 0 0 0 0 0 0 0 0 0 0 0
0 0 0 1 1 0 0 0 0 0 0 0 0 0 0 1 1 0 0 0 0 0 0 0 0 0 0 0 0 0 0 0 0 0 0 0 0 0
1 1 1 1 1 1 0 0 0 0 0 0 0 0 1 1 1 0 0 0 0 0 0 0 0 0 0 0 0 0 0 0 0 0 0 0 0 0
2 1 1 1 1 1 1 1 2 1 1 0 0 1 1 1 1 0 0 0 0 0 0 0 0 0 0 0 0 0 0 0 0 0 0 0 0 0
2 1 0 0 0 1 2 2 3 3 2 1 0 0 0 0 0 0 0 0 0 0 0 0 0 0 0 0 0 0 0 0 0 0 0 0 0 0
2 1 0 0 0 0 1 2 2 3 2 1 1 1 1 1 0 0 0 0 0 0 0 0 0 0 0 0 0 0 0 0 0 0 0 0 0 0
1 0 0 0 0 0 0 1 1 1 2 3 2 2 2 1 0 0 0 0 0 0 0 0 0 0 0 0 0 0 0 0 0 0 0 0 0 0
0 0 0 0 0 0 0 0 0 1 2 3 3 2 2 1 0 0 0 0 0 0 0 0 0 0 0 0 0 0 0 0 0 0 0 0 0 0
0 0 0 0 0 0 0 0 0 1 2 2 2 1 0 0 0 0 0 0 0 0 0 0 0 0 0 0 0 0 0 0 0 0 0 0 0 0
0 0 0 0 0 0 0 0 1 1 1 1 1 0 0 0 0 0 0 0 0 0 0 0 0 0 0 0 0 0 0 0 0 0 0 0 0 0
0 0 0 0 0 0 0 0 0 0 0 0 0 0 0 0 0 0 0 0 0 0 0 0 0 0 0 0 0 0 0 0 0 0 0 0 0 0
0 0 0 0 0 0 0 0 0 0 0 0 0 0 0 0 0 0 0 0 0 0 0 0 0 0 0 0 0 0 0 0 0 0 0 0 0 0
0 0 0 0 0 0 0 0 0 0 0 0 0 0 0 0 0 0 0 0 0 0 0 0 0 0 0 0 0 0 0 0 0 0 0 0 0 0
0 0 0 0 0 0 0 0 0 0 0 0 0 0 0 0 0 0 0 0 0 0 0 0 0 0 0 0 0 0 0 0 0 0 0 0 0 0
0 0 0 0 0 0 0 0 0 0 0 0 0 0 0 0 0 0 0 0 0 0 0 0 0 0 0 0 0 0 0 0 0 0 0 0 0 0
0 0 0 0 0 0 0 0 0 0 0 0 0 0 0 0 0 0 0 0 0 0 0 0 0 0 0 0 0 0 0 0 0 0 0 0 0 0
0 0 0 0 0 0 0 0 0 0 0 0 0 0 0 0 0 0 0 0 0 0 0 0 0 0 0 0 0 0 0 0 0 0 0 0 0 0
Wind_Speed
0 1 1 2 2 2 2 3 3 3 4 4 3 3 3 3 7 7 6 12 14 13 12 10 9 8 8 7 6 5 4 3 4 4 5 6 7 6
1 1 2 2 2 2 3 3 3 4 3 3 3 2 2 2 6 5 6 13 16 15 14 13 12 11 10 8 7 7 6 6 6 6 6 6 7 7
4 5 5 4 3 3 3 3 3 3 4 3 2 2 2 2 2 4 3 4 7 15 16 15 14 13 12 11 10 9 9 8 8 7 7 7 7 8
4 2 3 3 3 2 2 3 3 4 4 4 3 2 3 2 2 4 4 4 5 13 17 16 15 14 13 13 12 11 10 10 9 8 8 7 8 8
5 3 2 1 2 2 3 3 3 3 3 3 3 2 2 2 2 3 4 3 3 5 13 15 15 14 14 14 14 13 12 12 11 10 9 8 8 8
4 5 4 2 2 1 1 1 2 2 2 2 2 1 2 2 2 2 3 3 3 2 5 8 11 15 15 15 15 15 14 13 12 11 10 9 8 8
3 3 3 5 7 4 2 2 1 0 1 1 1 1 1 1 2 2 2 2 2 2 2 3 5 5 8 13 16 16 15 14 13 12 11 10 10 10
3 2 3 6 7 6 4 3 1 1 1 0 1 1 1 1 1 1 1 0 2 1 1 2 1 3 4 4 9 14 16 15 14 13 12 12 11 11
5 3 1 3 7 6 6 6 4 3 1 0 0 0 1 1 1 1 1 1 1 1 1 2 2 2 2 2 4 5 10 12 12 12 12 12 12 11
5 3 1 1 1 1 3 4 4 5 5 2 1 2 3 3 2 1 1 0 1 0 1 1 2 2 2 3 4 3 1 3 6 8 10 10 10 10
3 3 3 4 4 4 2 1 2 2 4 6 6 6 5 4 3 2 1 1 1 1 1 0 2 2 2 1 2 4 3 3 4 6 7 8 8 8
4 4 8 7 6 6 4 2 2 1 3 3 2 2 2 3 1 0 1 1 1 1 0 0 1 2 2 2 1 2 2 3 4 6 7 7 6 4
4 4 5 8 7 6 4 3 2 2 1 2 2 2 1 2 2 1 1 1 0 1 1 1 0 1 1 3 2 2 1 2 2 3 5 5 5 5
4 3 4 7 6 4 2 3 3 3 1 2 2 2 1 1 1 1 1 0 0 1 2 2 0 0 1 2 3 2 2 2 2 2 1 2 4 7
2 4 4 5 5 2 1 0 1 1 1 2 2 2 2 2 2 2 2 2 2 1 1 1 1 1 1 1 2 3 3 2 1 1 1 1 2 2
3 3 3 3 3 2 1 1 1 1 2 2 3 2 2 2 2 2 2 2 2 2 2 1 1 1 1 2 2 2 2 2 3 3 2 3 3 2
4 3 3 3 3 3 3 3 3 3 3 3 3 3 2 2 2 2 2 2 2 2 3 3 3 3 2 1 2 2 3 3 3 4 4 4 4 3
7 6 6 6 6 5 5 5 4 4 4 3 3 3 3 3 2 2 3 3 3 3 3 3 4 4 4 5 6 4 3 3 3 4 3 3 4 4
9 8 7 7 7 7 6 6 6 5 5 5 5 4 4 3 3 3 4 3 3 3 3 3 4 4 4 3 4 6 4 3 4 4 4 3 3 3
7 7 7 7 7 7 6 6 6 6 6 5 5 5 4 4 4 3 3 4 3 3 3 3 3 3 2 2 2 3 5 3 3 3 4 4 3 4
6 6 6 6 6 6 5 5 5 5 6 5 5 5 4 4 4 3 3 5 4 3 3 3 2 2 2 2 3 3 3 3 3 2 3 3 4 4
5 5 5 6 5 5 5 5 5 5 5 5 4 4 4 3 4 4 4 3 3 3 3 3 3 3 3 3 3 3 4 4 3 4 3 2 2 3
4 4 4 4 5 4 4 5 5 4 4 4 4 3 3 3 3 3 4 4 4 4 4 4 4 3 3 3 3 4 6 6 5 4 4 4 4 3
Wind_Direction
346 268 217 227 234 229 219 199 191 216 240 234 229 219 203 190 174 186 184 193 194 198 199 201 205 210 214 217 219 221 232 249 268 276 282 287 294 304
174 267 264 237 232 225 222 222 205 203 236 235 216 211 194 169 171 199 207 197 201 201 202 204 206 210 215 218 220 220 225 236 251 263 272 279 283 286
222 213 222 220 215 220 224 228 224 207 225 251 223 202 172 200 177 242 237 193 200 206 207 208 208 211 216 220 223 223 225 232 242 254 265 274 278 278
271 262 237 201 199 220 216 224 229 221 214 237 235 214 212 216 203 238 245 216 204 209 211 212 213 214 216 220 224 225 226 228 232 241 254 268 276 277
223 230 250 208 194 210 212 223 230 233 216 222 241 220 222 221 222 242 255 260 255 211 207 213 217 218 220 223 225 227 227 228 228 231 240 255 270 275
227 207 201 205 152 149 195 217 227 230 227 225 241 243 231 220 188 221 250 253 260 258 208 209 217 222 226 228 230 230 229 230 229 229 231 238 250 260
262 250 173 127 109 99 85 44 21 293 206 209 237 241 229 199 212 207 233 271 275 254 240 219 209 217 223 233 237 237 233 231 230 230 230 232 238 247
289 268 165 153 151 150 152 150 116 40 46 142 187 238 253 218 197 185 213 293 289 307 287 272 222 228 232 222 231 230 231 231 230 230 231 231 233 239
300 294 257 164 163 177 188 193 200 200 194 34 12 202 110 122 127 134 178 230 265 329 11 306 323 298 298 331 334 241 230 232 234 234 234 234 234 236
282 282 295 160 160 139 172 194 195 186 194 193 71 79 79 71 80 109 144 221 281 310 74 305 333 332 352 1 19 33 316 262 255 251 246 243 241 240
323 12 40 63 57 46 26 48 117 132 134 113 101 102 98 84 67 55 52 31 320 303 76 343 336 331 331 341 1 18 9 328 295 282 274 265 257 251
354 52 60 64 52 37 21 34 66 75 118 136 141 156 179 170 164 138 99 76 331 321 102 101 340 352 339 321 308 316 328 313 299 288 282 278 270 253
4 40 50 44 40 31 25 36 66 22 25 105 115 113 115 130 164 200 140 138 214 292 181 150 338 357 328 315 311 290 273 293 307 295 279 271 257 234
4 22 28 17 9 0 19 62 39 10 6 71 87 81 75 71 64 68 86 110 149 185 179 164 194 296 324 313 307 312 294 268 274 298 305 279 264 254
346 354 346 351 342 327 188 103 335 325 36 89 100 99 86 76 62 43 28 29 28 33 107 151 180 278 286 293 310 317 324 326 334 333 328 299 279 259
351 345 343 359 356 2 87 200 214 86 89 100 105 97 85 65 50 42 32 11 28 4 1 17 342 316 302 290 302 318 337 345 351 348 342 330 320 312
355 7 20 21 29 35 39 44 53 65 68 73 89 90 81 78 58 35 31 30 44 29 8 352 339 323 304 329 10 14 18 16 3 354 354 343 341 5
36 35 32 32 38 41 43 43 46 49 56 68 73 75 75 73 59 34 32 41 45 39 29 10 3 0 7 34 40 43 27 9 354 357 5 356 345 22
44 40 35 34 35 37 40 42 41 39 48 56 59 56 56 56 54 44 35 34 37 36 34 30 29 28 24 2 357 36 30 5 358 359 2 359 338 7
38 36 35 33 32 33 35 37 38 36 40 46 46 43 42 46 45 43 44 32 27 31 31 34 35 28 15 321 318 358 34 33 11 2 350 344 355 69
36 34 29 28 29 30 30 35 40 38 37 40 36 33 30 35 36 35 43 39 36 33 29 17 351 320 305 5 14 1 359 33 60 49 1 2 359 6
43 35 28 26 24 22 26 31 39 39 31 32 28 22 20 30 35 36 35 37 35 28 18 2 357 13 30 39 24 7 8 7 32 60 65 65 35 7
50 48 33 24 21 18 22 31 39 37 29 18 16 13 14 19 28 39 36 39 35 25 18 11 7 23 30 31 35 33 24 14 11 24 23 10 5 337